EZY122 LFPG-EGPH

Flight info

Callsign EZY122
Flight time 1h 17m
Altitude 38000
Route ATREX6G/09R ATREX DCT VESAN DCT RATUK DCT SOVAT L613 LEHOC DCT INPIP
Aircraft A320/M-SDE3FGHIRWY/LB1

Departure

Time 2026-04-25 20:16
Airport Charles de Gaulle International Airport (LFPG)

Arrival

Time 2026-04-25 21:34
Airport Edinburgh Airport (EGPH)
Time Latitude Longitude Altitude Speed Heading
2026-04-25 19:42 49.00581 2.57344 355 ft 0 kts 88°
2026-04-25 19:55 49.00581 2.57340 354 ft 2 kts 88°
2026-04-25 19:55 49.00581 2.57314 364 ft 2 kts 88°
2026-04-25 19:55 49.00580 2.57288 359 ft 2 kts 88°
2026-04-25 19:56 49.00577 2.57263 364 ft 2 kts 32°
2026-04-25 19:56 49.00569 2.57257 364 ft 0 kts 358°
2026-04-25 19:58 49.00615 2.57242 354 ft 18 kts 348°
2026-04-25 19:58 49.00710 2.57224 359 ft 14 kts 354°
2026-04-25 19:59 49.00775 2.57215 354 ft 0 kts 354°
2026-04-25 20:00 49.00794 2.57212 357 ft 5 kts 353°
2026-04-25 20:00 49.00849 2.57160 358 ft 12 kts 297°
2026-04-25 20:01 49.00843 2.56902 354 ft 19 kts 264°
2026-04-25 20:01 49.00828 2.56654 354 ft 25 kts 265°
2026-04-25 20:01 49.00814 2.56405 358 ft 24 kts 264°
2026-04-25 20:02 49.00786 2.56144 354 ft 26 kts 261°
2026-04-25 20:02 49.00761 2.55868 354 ft 27 kts 262°
2026-04-25 20:02 49.00737 2.55593 357 ft 21 kts 262°
2026-04-25 20:02 49.00726 2.55472 356 ft 0 kts 263°
2026-04-25 20:03 49.00726 2.55469 357 ft 3 kts 263°
2026-04-25 20:03 49.00723 2.55423 361 ft 5 kts 269°
2026-04-25 20:04 49.00762 2.55335 354 ft 13 kts 336°
2026-04-25 20:04 49.00858 2.55290 354 ft 16 kts 345°
2026-04-25 20:04 49.00970 2.55242 361 ft 18 kts 344°
2026-04-25 20:04 49.01092 2.55190 355 ft 16 kts 345°
2026-04-25 20:05 49.01118 2.55179 357 ft 0 kts 345°
2026-04-25 20:05 49.01161 2.55163 359 ft 10 kts 350°
2026-04-25 20:06 49.01239 2.55177 361 ft 13 kts 18°
2026-04-25 20:06 49.01329 2.55219 354 ft 15 kts
2026-04-25 20:06 49.01436 2.55184 354 ft 17 kts 349°
2026-04-25 20:06 49.01558 2.55160 358 ft 19 kts 355°
2026-04-25 20:07 49.01695 2.55144 354 ft 21 kts 355°
2026-04-25 20:07 49.01813 2.55131 360 ft 14 kts 349°
2026-04-25 20:07 49.01859 2.55034 354 ft 10 kts 273°
2026-04-25 20:07 49.01860 2.54959 357 ft 7 kts 273°
2026-04-25 20:08 49.01901 2.54861 357 ft 12 kts 327°
2026-04-25 20:08 49.01989 2.54830 357 ft 14 kts 336°
2026-04-25 20:08 49.02011 2.54795 358 ft 0 kts 307°
2026-04-25 20:09 49.02015 2.54780 357 ft 10 kts 293°
2026-04-25 20:09 49.02013 2.54556 356 ft 24 kts 265°
2026-04-25 20:09 49.02002 2.54364 362 ft 16 kts 265°
2026-04-25 20:09 49.01983 2.54206 357 ft 14 kts 243°
2026-04-25 20:10 49.01917 2.54102 358 ft 13 kts 226°
2026-04-25 20:10 49.01891 2.53981 359 ft 12 kts 263°
2026-04-25 20:10 49.01884 2.53864 354 ft 11 kts 265°
2026-04-25 20:10 49.01879 2.53758 354 ft 9 kts 265°
2026-04-25 20:11 49.01872 2.53632 358 ft 13 kts 265°
2026-04-25 20:11 49.01865 2.53494 354 ft 16 kts 265°
2026-04-25 20:11 49.01846 2.53222 355 ft 29 kts 266°
2026-04-25 20:11 49.01836 2.52947 354 ft 25 kts 265°
2026-04-25 20:12 49.01823 2.52724 354 ft 20 kts 264°
2026-04-25 20:12 49.01814 2.52568 357 ft 11 kts 265°
2026-04-25 20:12 49.01808 2.52461 354 ft 10 kts 268°
2026-04-25 20:12 49.01810 2.52428 354 ft 9 kts 278°
2026-04-25 20:13 49.01881 2.52354 359 ft 8 kts 353°
2026-04-25 20:13 49.01938 2.52344 354 ft 9 kts 354°
2026-04-25 20:13 49.01963 2.52340 354 ft 0 kts 355°
2026-04-25 20:14 49.01964 2.52340 354 ft 1 kts 355°
2026-04-25 20:14 49.01990 2.52337 361 ft 4 kts 355°
2026-04-25 20:14 49.02022 2.52333 360 ft 5 kts 355°
2026-04-25 20:14 49.02066 2.52332 354 ft 9 kts
2026-04-25 20:15 49.02118 2.52392 359 ft 11 kts 66°
2026-04-25 20:15 49.02143 2.52732 356 ft 69 kts 84°
2026-04-25 20:15 49.02207 2.53816 357 ft 134 kts 85°
2026-04-25 20:15 49.02280 2.55487 463 ft 174 kts 84°
2026-04-25 20:16 49.02326 2.56733 837 ft 180 kts 83°
2026-04-25 20:16 49.02430 2.58666 1507 ft 192 kts 82°
2026-04-25 20:16 49.02553 2.60823 2009 ft 216 kts 83°
2026-04-25 20:16 49.02690 2.63238 2544 ft 241 kts 83°
2026-04-25 20:17 49.02837 2.65875 3301 ft 255 kts 83°
2026-04-25 20:17 49.03033 2.69519 4532 ft 264 kts 83°
2026-04-25 20:17 49.03134 2.71412 5180 ft 267 kts 83°
2026-04-25 20:17 49.03622 2.74137 6104 ft 270 kts 57°
2026-04-25 20:18 49.05002 2.76033 6996 ft 272 kts 23°
2026-04-25 20:18 49.06864 2.76438 7877 ft 276 kts 351°
2026-04-25 20:18 49.08705 2.75573 8808 ft 278 kts 336°
2026-04-25 20:18 49.10459 2.74272 9708 ft 283 kts 333°
2026-04-25 20:19 49.12205 2.72911 10064 ft 285 kts 333°
2026-04-25 20:19 49.14002 2.71613 10167 ft 285 kts 336°
2026-04-25 20:19 49.15896 2.70387 10195 ft 309 kts 338°
2026-04-25 20:19 49.17938 2.69181 10196 ft 318 kts 339°
2026-04-25 20:20 49.20019 2.68033 10193 ft 319 kts 340°
2026-04-25 20:20 49.22129 2.66918 10195 ft 320 kts 341°
2026-04-25 20:20 49.24240 2.65820 10256 ft 324 kts 341°
2026-04-25 20:20 49.26395 2.64701 11071 ft 327 kts 341°
2026-04-25 20:21 49.28552 2.63575 11991 ft 328 kts 340°
2026-04-25 20:21 49.30720 2.62436 12861 ft 331 kts 340°
2026-04-25 20:21 49.32910 2.61277 13690 ft 335 kts 340°
2026-04-25 20:21 49.35125 2.60100 14444 ft 338 kts 340°
2026-04-25 20:22 49.37362 2.58913 15149 ft 342 kts 339°
2026-04-25 20:22 49.38856 2.58120 15613 ft 345 kts 339°
2026-04-25 20:22 49.41922 2.56492 16544 ft 350 kts 339°
2026-04-25 20:22 49.44228 2.55260 17237 ft 354 kts 339°
2026-04-25 20:23 49.46571 2.54008 17922 ft 358 kts 339°
2026-04-25 20:23 49.48935 2.52745 18589 ft 362 kts 338°
2026-04-25 20:23 49.51325 2.51472 19187 ft 365 kts 339°
2026-04-25 20:23 49.53705 2.50204 19793 ft 368 kts 339°
2026-04-25 20:24 49.56167 2.48888 20406 ft 371 kts 339°
2026-04-25 20:24 49.58580 2.47595 21005 ft 374 kts 339°
2026-04-25 20:24 49.61051 2.46270 21609 ft 377 kts 338°
2026-04-25 20:24 49.63539 2.44937 22203 ft 381 kts 338°
2026-04-25 20:25 49.66057 2.43587 22802 ft 384 kts 338°
2026-04-25 20:25 49.68587 2.42226 23386 ft 387 kts 338°
2026-04-25 20:25 49.71142 2.40852 23939 ft 390 kts 338°
2026-04-25 20:25 49.73719 2.39462 24425 ft 393 kts 338°
2026-04-25 20:26 49.76313 2.38061 24903 ft 396 kts 338°
2026-04-25 20:26 49.78917 2.36653 25375 ft 399 kts 338°
2026-04-25 20:26 49.81540 2.35194 25843 ft 401 kts 337°
2026-04-25 20:26 49.84159 2.33690 26141 ft 402 kts 336°
2026-04-25 20:27 49.86783 2.32156 26220 ft 402 kts 336°
2026-04-25 20:27 49.89394 2.30619 26222 ft 402 kts 336°
2026-04-25 20:27 49.92010 2.29081 26223 ft 402 kts 336°
2026-04-25 20:27 49.94633 2.27550 26222 ft 402 kts 336°
2026-04-25 20:28 49.97241 2.26037 26223 ft 400 kts 337°
2026-04-25 20:28 49.99848 2.24525 26224 ft 399 kts 337°
2026-04-25 20:28 50.02454 2.23012 26224 ft 399 kts 337°
2026-04-25 20:28 50.05054 2.21499 26227 ft 399 kts 337°
2026-04-25 20:29 50.07621 2.20003 26229 ft 399 kts 337°
2026-04-25 20:29 50.10217 2.18490 26227 ft 399 kts 337°
2026-04-25 20:29 50.12820 2.16974 26232 ft 399 kts 337°
2026-04-25 20:29 50.15418 2.15459 26233 ft 399 kts 337°
2026-04-25 20:30 50.17175 2.14433 26233 ft 399 kts 337°
2026-04-25 20:30 50.20603 2.12427 26232 ft 398 kts 337°
2026-04-25 20:30 50.23191 2.10908 26235 ft 397 kts 337°
2026-04-25 20:30 50.25787 2.09380 26240 ft 397 kts 337°
2026-04-25 20:31 50.28376 2.07852 26235 ft 397 kts 337°
2026-04-25 20:31 50.30963 2.06325 26235 ft 397 kts 337°
2026-04-25 20:31 50.33550 2.04798 26237 ft 397 kts 337°
2026-04-25 20:31 50.36101 2.03130 26237 ft 396 kts 330°
2026-04-25 20:32 50.38433 2.00878 26236 ft 393 kts 321°
2026-04-25 20:32 50.40533 1.98127 26249 ft 393 kts 317°
2026-04-25 20:32 50.42594 1.95316 26239 ft 393 kts 317°
2026-04-25 20:32 50.44648 1.92504 26239 ft 393 kts 317°
2026-04-25 20:33 50.46710 1.89684 26241 ft 393 kts 317°
2026-04-25 20:33 50.48773 1.86871 26246 ft 393 kts 317°
2026-04-25 20:33 50.50810 1.84090 26243 ft 392 kts 318°
2026-04-25 20:33 50.52195 1.82200 26246 ft 391 kts 318°
2026-04-25 20:34 50.54912 1.78491 26246 ft 390 kts 318°
2026-04-25 20:34 50.56960 1.75689 26247 ft 390 kts 317°
2026-04-25 20:34 50.59009 1.72874 26247 ft 390 kts 317°
2026-04-25 20:34 50.61049 1.70062 26247 ft 390 kts 317°
2026-04-25 20:35 50.63089 1.67244 26241 ft 390 kts 317°
2026-04-25 20:35 50.65128 1.64427 26244 ft 390 kts 317°
2026-04-25 20:35 50.67168 1.61606 26241 ft 390 kts 317°
2026-04-25 20:35 50.69206 1.58784 26247 ft 390 kts 317°
2026-04-25 20:36 50.71250 1.55959 26244 ft 390 kts 317°
2026-04-25 20:36 50.73297 1.53125 26466 ft 393 kts 317°
2026-04-25 20:36 50.75359 1.50263 26938 ft 395 kts 317°
2026-04-25 20:36 50.77431 1.47383 27373 ft 398 kts 317°
2026-04-25 20:37 50.79519 1.44476 27795 ft 401 kts 317°
2026-04-25 20:37 50.81611 1.41557 28205 ft 403 kts 317°
2026-04-25 20:37 50.83718 1.38611 28638 ft 405 kts 317°
2026-04-25 20:37 50.85829 1.35664 29075 ft 406 kts 317°
2026-04-25 20:38 50.87963 1.32685 29487 ft 409 kts 317°
2026-04-25 20:38 50.90103 1.29694 29852 ft 412 kts 317°
2026-04-25 20:38 50.92253 1.26683 30182 ft 414 kts 317°
2026-04-25 20:38 50.94412 1.23654 30250 ft 414 kts 317°
2026-04-25 20:39 50.98729 1.17597 30250 ft 414 kts 317°
2026-04-25 20:39 51.02313 1.12557 30249 ft 414 kts 317°
2026-04-25 20:40 51.07429 1.05621 30242 ft 415 kts 323°
2026-04-25 20:40 51.12176 1.00387 30248 ft 415 kts 323°
2026-04-25 20:41 51.16921 0.95147 30246 ft 415 kts 323°
2026-04-25 20:41 51.21602 0.89956 30262 ft 410 kts 323°
2026-04-25 20:42 51.26294 0.84726 30258 ft 417 kts 323°
2026-04-25 20:42 51.31163 0.79285 30260 ft 435 kts 323°
2026-04-25 20:43 51.36176 0.73673 30238 ft 442 kts 323°
2026-04-25 20:43 51.41219 0.68005 30243 ft 443 kts 323°
2026-04-25 20:44 51.46233 0.62357 30247 ft 443 kts 323°
2026-04-25 20:44 51.51282 0.56670 30240 ft 443 kts 325°
2026-04-25 20:45 51.54058 0.54495 30248 ft 444 kts 341°
2026-04-25 20:45 51.57048 0.53739 30248 ft 431 kts 358°
2026-04-25 20:45 51.59998 0.54472 30245 ft 431 kts 15°
2026-04-25 20:45 51.62695 0.56606 30246 ft 436 kts 30°
2026-04-25 20:46 51.68161 0.60369 30252 ft 425 kts
2026-04-25 20:46 51.71080 0.60121 30470 ft 419 kts 344°
2026-04-25 20:46 51.73779 0.58432 30711 ft 417 kts 327°
2026-04-25 20:47 51.76062 0.55539 30960 ft 416 kts 311°
2026-04-25 20:47 51.77862 0.51872 31212 ft 418 kts 306°
2026-04-25 20:47 51.79606 0.48104 31451 ft 420 kts 306°
2026-04-25 20:47 51.81347 0.44328 31833 ft 418 kts 306°
2026-04-25 20:48 51.83071 0.40587 32431 ft 412 kts 306°
2026-04-25 20:48 51.84765 0.36916 33364 ft 397 kts 306°
2026-04-25 20:48 51.86381 0.33416 34474 ft 381 kts 306°
2026-04-25 20:48 51.87959 0.29992 34921 ft 380 kts 306°
2026-04-25 20:49 51.89540 0.26545 35155 ft 383 kts 306°
2026-04-25 20:49 51.91138 0.23055 35306 ft 387 kts 306°
2026-04-25 20:49 51.92737 0.19563 35723 ft 384 kts 306°
2026-04-25 20:49 51.94320 0.16094 36150 ft 382 kts 305°
2026-04-25 20:50 51.95886 0.12655 36582 ft 378 kts 305°
2026-04-25 20:50 51.97441 0.09242 37024 ft 374 kts 305°
2026-04-25 20:50 51.98981 0.05862 37474 ft 370 kts 305°
2026-04-25 20:50 52.00517 0.02495 37679 ft 373 kts 307°
2026-04-25 20:51 52.02262 -0.00652 37802 ft 378 kts 315°
2026-04-25 20:51 52.04313 -0.03375 37897 ft 384 kts 324°
2026-04-25 20:51 52.06623 -0.05614 38046 ft 388 kts 330°
2026-04-25 20:51 52.09007 -0.07681 38201 ft 391 kts 330°
2026-04-25 20:52 52.13043 -0.11217 38227 ft 401 kts 329°
2026-04-25 20:52 52.18875 -0.16361 38232 ft 415 kts 329°
2026-04-25 20:53 52.24024 -0.20906 38233 ft 423 kts 329°
2026-04-25 20:53 52.29215 -0.25483 38249 ft 425 kts 330°
2026-04-25 20:54 52.34442 -0.30105 38245 ft 434 kts 330°
2026-04-25 20:54 52.39805 -0.34866 38255 ft 442 kts 330°
2026-04-25 20:55 52.45247 -0.39703 38263 ft 448 kts 330°
2026-04-25 20:55 52.50761 -0.44626 38273 ft 452 kts 329°
2026-04-25 20:56 52.56308 -0.49598 38274 ft 456 kts 330°
2026-04-25 20:56 52.61890 -0.54610 38274 ft 458 kts 330°
2026-04-25 20:57 52.67481 -0.59639 38276 ft 459 kts 329°
2026-04-25 20:57 52.73051 -0.64670 38276 ft 459 kts 329°
2026-04-25 20:58 52.77748 -0.68931 38286 ft 460 kts 329°
2026-04-25 20:58 52.84274 -0.74858 38289 ft 461 kts 329°
2026-04-25 20:59 52.88976 -0.79140 38287 ft 460 kts 329°
2026-04-25 20:59 52.94589 -0.84265 38284 ft 460 kts 329°
2026-04-25 21:00 52.99243 -0.88531 38280 ft 460 kts 329°
2026-04-25 21:01 53.08568 -0.97113 38261 ft 460 kts 329°
2026-04-25 21:01 53.14171 -1.02275 38261 ft 460 kts 329°
2026-04-25 21:02 53.19777 -1.07456 38264 ft 460 kts 329°
2026-04-25 21:02 53.25374 -1.12643 38279 ft 460 kts 329°
2026-04-25 21:03 53.30972 -1.17849 38278 ft 461 kts 329°
2026-04-25 21:03 53.36571 -1.23082 38288 ft 462 kts 329°
2026-04-25 21:04 53.42189 -1.28366 38290 ft 463 kts 329°
2026-04-25 21:04 53.47812 -1.33665 38308 ft 463 kts 329°
2026-04-25 21:05 53.53432 -1.38963 38314 ft 463 kts 329°
2026-04-25 21:05 53.59049 -1.44284 38318 ft 463 kts 329°
2026-04-25 21:06 53.64659 -1.49613 38315 ft 463 kts 329°
2026-04-25 21:06 53.70263 -1.54955 38317 ft 463 kts 329°
2026-04-25 21:07 53.75516 -1.61102 38303 ft 455 kts 316°
2026-04-25 21:07 53.80161 -1.68249 38296 ft 449 kts 316°
2026-04-25 21:08 53.84780 -1.75358 38296 ft 448 kts 316°
2026-04-25 21:08 53.89388 -1.82465 38302 ft 449 kts 316°
2026-04-25 21:09 53.96307 -1.93175 38292 ft 449 kts 316°
2026-04-25 21:09 54.00916 -2.00332 38301 ft 450 kts 318°
2026-04-25 21:10 54.06175 -2.06186 38306 ft 453 kts 328°
2026-04-25 21:10 54.11615 -2.11610 38297 ft 453 kts 327°
2026-04-25 21:11 54.17052 -2.17067 38303 ft 453 kts 327°
2026-04-25 21:11 54.22446 -2.22515 38224 ft 454 kts 327°
2026-04-25 21:12 54.25159 -2.25258 37611 ft 452 kts 327°
2026-04-25 21:12 54.27900 -2.28026 37050 ft 450 kts 327°
2026-04-25 21:12 54.30541 -2.30695 36785 ft 443 kts 327°
2026-04-25 21:12 54.32322 -2.32498 36610 ft 439 kts 327°
2026-04-25 21:13 54.35822 -2.36053 36256 ft 436 kts 327°
2026-04-25 21:13 54.38420 -2.38707 36007 ft 435 kts 327°
2026-04-25 21:13 54.40980 -2.41323 35742 ft 433 kts 327°
2026-04-25 21:13 54.43554 -2.43954 35246 ft 429 kts 327°
2026-04-25 21:14 54.46113 -2.46571 34696 ft 426 kts 327°
2026-04-25 21:14 54.48647 -2.49162 34162 ft 424 kts 327°
2026-04-25 21:14 54.51168 -2.51746 33600 ft 420 kts 327°
2026-04-25 21:14 54.53670 -2.54319 33095 ft 416 kts 327°
2026-04-25 21:15 54.56137 -2.56859 32568 ft 412 kts 327°
2026-04-25 21:15 54.58594 -2.59393 32045 ft 409 kts 327°
2026-04-25 21:15 54.61018 -2.61896 31549 ft 405 kts 327°
2026-04-25 21:15 54.63421 -2.64377 31062 ft 402 kts 327°
2026-04-25 21:16 54.65813 -2.66847 30580 ft 398 kts 326°
2026-04-25 21:16 54.68179 -2.69296 30057 ft 395 kts 326°
2026-04-25 21:16 54.70520 -2.71726 29597 ft 389 kts 326°
2026-04-25 21:16 54.72825 -2.74124 29157 ft 384 kts 326°
2026-04-25 21:17 54.75099 -2.76490 28714 ft 379 kts 326°
2026-04-25 21:17 54.77347 -2.78831 28286 ft 375 kts 326°
2026-04-25 21:17 54.79575 -2.81156 27854 ft 371 kts 326°
2026-04-25 21:17 54.81771 -2.83454 27419 ft 367 kts 326°
2026-04-25 21:18 54.83947 -2.85734 26998 ft 364 kts 326°
2026-04-25 21:18 54.86101 -2.87990 26572 ft 360 kts 326°
2026-04-25 21:18 54.88305 -2.90074 26288 ft 362 kts 334°
2026-04-25 21:18 54.90638 -2.91753 26273 ft 365 kts 335°
2026-04-25 21:19 54.92994 -2.93453 26285 ft 366 kts 334°
2026-04-25 21:19 54.95340 -2.95156 26284 ft 363 kts 334°
2026-04-25 21:19 54.97670 -2.96847 26137 ft 362 kts 334°
2026-04-25 21:19 54.99998 -2.98535 25568 ft 363 kts 334°
2026-04-25 21:20 55.02355 -3.00250 24672 ft 373 kts 335°
2026-04-25 21:20 55.03954 -3.01418 24218 ft 377 kts 335°
2026-04-25 21:20 55.07190 -3.03780 23444 ft 375 kts 335°
2026-04-25 21:20 55.09586 -3.05525 22895 ft 373 kts 335°
2026-04-25 21:21 55.11978 -3.07269 22364 ft 370 kts 335°
2026-04-25 21:21 55.14349 -3.09000 21850 ft 368 kts 335°
2026-04-25 21:21 55.16709 -3.10724 21257 ft 368 kts 335°
2026-04-25 21:21 55.19067 -3.12453 20649 ft 368 kts 335°
2026-04-25 21:22 55.21429 -3.14195 20057 ft 368 kts 335°
2026-04-25 21:22 55.23785 -3.15942 19484 ft 369 kts 335°
2026-04-25 21:22 55.26153 -3.17702 18888 ft 370 kts 335°
2026-04-25 21:22 55.28522 -3.19469 18258 ft 370 kts 335°
2026-04-25 21:23 55.30893 -3.21248 17592 ft 371 kts 335°
2026-04-25 21:23 55.33266 -3.23039 16933 ft 371 kts 335°
2026-04-25 21:23 55.35635 -3.24840 16289 ft 371 kts 335°
2026-04-25 21:23 55.38000 -3.26649 15660 ft 372 kts 335°
2026-04-25 21:24 55.40378 -3.28478 15036 ft 372 kts 335°
2026-04-25 21:24 55.42713 -3.30285 14445 ft 371 kts 335°
2026-04-25 21:24 55.45107 -3.32147 13807 ft 371 kts 335°
2026-04-25 21:24 55.47432 -3.33959 13145 ft 370 kts 334°
2026-04-25 21:25 55.49791 -3.35783 12499 ft 369 kts 335°
2026-04-25 21:25 55.52133 -3.37594 11862 ft 367 kts 335°
2026-04-25 21:25 55.54462 -3.39399 11241 ft 365 kts 335°
2026-04-25 21:25 55.56773 -3.41191 10626 ft 362 kts 335°
2026-04-25 21:26 55.58972 -3.43289 10008 ft 356 kts 322°
2026-04-25 21:26 55.60916 -3.45952 9352 ft 353 kts 320°
2026-04-25 21:26 55.62828 -3.48651 8704 ft 349 kts 320°
2026-04-25 21:26 55.64713 -3.51327 8076 ft 346 kts 320°
2026-04-25 21:27 55.66573 -3.53977 7462 ft 342 kts 320°
2026-04-25 21:27 55.68396 -3.56587 6963 ft 326 kts 320°
2026-04-25 21:27 55.70105 -3.59034 6467 ft 306 kts 320°
2026-04-25 21:27 55.71729 -3.61354 6028 ft 296 kts 320°
2026-04-25 21:28 55.73329 -3.63646 5611 ft 293 kts 320°
2026-04-25 21:28 55.74900 -3.65856 5196 ft 279 kts 319°
2026-04-25 21:28 55.76386 -3.67903 4798 ft 263 kts 320°
2026-04-25 21:28 55.77805 -3.69809 4382 ft 250 kts 327°
2026-04-25 21:29 55.79420 -3.70681 4026 ft 239 kts
2026-04-25 21:29 55.81003 -3.69977 3827 ft 238 kts 25°
2026-04-25 21:29 55.82485 -3.68633 3628 ft 240 kts 29°
2026-04-25 21:29 55.83948 -3.67218 3445 ft 239 kts 30°
2026-04-25 21:30 55.85281 -3.65524 3308 ft 234 kts 51°
2026-04-25 21:30 55.86177 -3.63137 3213 ft 232 kts 61°
2026-04-25 21:30 55.87011 -3.60681 3014 ft 231 kts 62°
2026-04-25 21:30 55.87562 -3.59069 2831 ft 229 kts 60°
2026-04-25 21:31 55.88661 -3.55854 2422 ft 226 kts 61°
2026-04-25 21:31 55.89466 -3.53501 2110 ft 216 kts 60°
2026-04-25 21:31 55.90226 -3.51276 1815 ft 203 kts 60°
2026-04-25 21:31 55.90919 -3.49250 1575 ft 179 kts 60°
2026-04-25 21:32 55.91527 -3.47466 1320 ft 160 kts 60°
2026-04-25 21:32 55.92091 -3.45808 1096 ft 153 kts 60°
2026-04-25 21:32 55.92668 -3.44110 876 ft 159 kts 59°
2026-04-25 21:32 55.93197 -3.42555 668 ft 140 kts 59°
2026-04-25 21:33 55.93685 -3.41123 484 ft 128 kts 60°
2026-04-25 21:33 55.94144 -3.39785 309 ft 127 kts 62°
2026-04-25 21:33 55.94603 -3.38456 141 ft 125 kts 59°
2026-04-25 21:33 55.94972 -3.37327 108 ft 75 kts 59°
2026-04-25 21:34 55.95205 -3.36614 105 ft 48 kts 60°
2026-04-25 21:34 55.95388 -3.36071 100 ft 48 kts 58°
2026-04-25 21:34 55.95540 -3.35663 102 ft 28 kts 57°
2026-04-25 21:34 55.95543 -3.35501 101 ft 11 kts 128°
2026-04-25 21:35 55.95482 -3.35416 102 ft 9 kts 148°
2026-04-25 21:35 55.95480 -3.35414 102 ft 0 kts 148°
2026-04-25 21:37 55.95475 -3.35409 103 ft 6 kts 150°
2026-04-25 21:38 55.95435 -3.35414 103 ft 9 kts 211°
2026-04-25 21:38 55.95385 -3.35533 106 ft 14 kts 237°
2026-04-25 21:38 55.95332 -3.35688 102 ft 15 kts 239°
2026-04-25 21:38 55.95278 -3.35851 102 ft 15 kts 240°
2026-04-25 21:39 55.95224 -3.36013 101 ft 15 kts 239°
2026-04-25 21:39 55.95191 -3.36112 102 ft 2 kts 239°
2026-04-25 21:39 55.95171 -3.36156 103 ft 8 kts 219°
2026-04-25 21:39 55.95124 -3.36145 102 ft 6 kts 130°
2026-04-25 21:40 55.95108 -3.36079 104 ft 5 kts 110°
2026-04-25 21:40 55.95098 -3.36029 104 ft 5 kts 108°
2026-04-25 21:40 55.95062 -3.35884 105 ft 16 kts 122°
2026-04-25 21:40 55.94999 -3.35845 107 ft 8 kts 197°
2026-04-25 21:41 55.94955 -3.35856 107 ft 6 kts 173°
2026-04-25 21:41 55.94926 -3.35823 108 ft 4 kts 140°
2026-04-25 21:41 55.94902 -3.35830 107 ft 4 kts 215°
2026-04-25 21:41 55.94873 -3.35854 107 ft 5 kts 195°
2026-04-25 21:42 55.94854 -3.35857 107 ft 1 kts 199°
2026-04-25 21:42 55.94853 -3.35860 107 ft 1 kts 210°
2026-04-25 21:42 55.94852 -3.35861 108 ft 0 kts 210°